Regional Weather Roundup
Issued by NWS

Home | Current Version | Previous Version | Text Only | Print | Product List | Glossary On
Versions: 1 2 3 4 5 6 7 8 9 10 11 12 13 14 15 16 17 18 19 20 21 22 23 24 25 26 27 28 29 30 31 32 33 34 35 36 37 38 39 40 41 42 43 44 45 46 47 48 49 50
000
ASUS43 KLOT 201908
RWRIL

ILLINOIS REGIONAL WEATHER ROUNDUP
NATIONAL WEATHER SERVICE CHICAGO/ROMEOVILLE IL
100 PM CST MON FEB 20 2017

NOTE: "FAIR" INDICATES FEW OR NO CLOUDS BELOW 12,000 FEET WITH NO
SIGNIFICANT WEATHER AND/OR OBSTRUCTIONS TO VISIBILITY.

* THESE STATIONS ARE NOT UNDER NWS QUALITY CONTROL. THEY ALSO MAY NOT
  REPORT WEATHER SUCH AS PRECIPITATION OR FOG.

ILZ001-002-007-009-015-016-024-202000-
NORTHWEST ILLINOIS

CITY           SKY/WX    TMP DP  RH WIND       PRES   REMARKS
MOLINE         CLOUDY    68  52  56 S14G26    29.89F
STERLING*      CLOUDY    66  53  63 SE15G23   29.95F
SAVANNA*       CLOUDY    64  52  66 SE14      29.92F
$$

ILZ003-004-008-010-011-017-018-202000-
NORTH CENTRAL ILLINOIS

CITY           SKY/WX    TMP DP  RH WIND       PRES   REMARKS
ROCKFORD       CLOUDY    66  51  58 S17       29.99F
FREEPORT*      CLOUDY    63  51  64 SE20G29   29.96F
ROCHELLE*      MOSUNNY   65  53  65 S24G31    29.99F
DE KALB*       CLOUDY    66  52  61 S21G28    30.01F
PERU*          SUNNY     68  50  52 S24G31    29.98F
$$

ILZ005-006-012>014-019>023-202000-
NORTHEAST ILLINOIS

CITY           SKY/WX    TMP DP  RH WIND       PRES   REMARKS
CHICAGO-OHARE  CLOUDY    67  48  50 SE17      30.03F
CHICAGO-MIDWAY PTSUNNY   67  46  47 SE16      30.04F
AURORA         CLOUDY    68  51  54 S22G30    30.02F
LANSING*       MOSUNNY   65  50  57 SE14G21   30.06F
JOLIET*        MOSUNNY   69  51  52 S13G18    30.04F
WAUKEGAN       CLOUDY    52  44  74 SE12      30.04F HAZE
DUPAGE AIRPORT CLOUDY    67  49  52 S15G26    30.02F
KANKAKEE*      MOSUNNY   68  48  49 SE17      30.06F
WHEELING       PTSUNNY   65  47  52 S15       30.04F
MORRIS*        PTSUNNY   69  52  54 S20G26    30.01F
ROMEOVILLE*    CLOUDY    66  53  62 S21G28    30.04S
NORTHERLY ISL    N/A     49  40  71 SE5         N/A
$$

LMZ740>746-202000-
SOUTHERN LAKE MICHIGAN

STATION/POSITION SKY/WX   TEMP    WIND        PRES    VSBY  WAVE
                          AIR SEA DIR/SP/G                  HT/PER
                          (F)     (DEG/KT/KT) (MB)    (MI)  (FT/S)
HARRISON CRIB              57     150/ 20/ 20   N/A
BURNHAM HARBOR             50      CALM  /  9   N/A
CALUMET HARBOR             65     150/ 15/ 19 1017.0F
BURNS HARBOR               65     160/ 11/ 20 1018.6F
MICHIGAN CITY              62     130/ 16/ 19   N/A
$$

ILZ025>027-034>036-040-047-049-050-058-095>099-202000-
WEST-CENTRAL ILLINOIS

CITY           SKY/WX    TMP DP  RH WIND       PRES   REMARKS
QUINCY         CLOUDY    75  51  43 S20G28    29.89F
GALESBURG*     CLOUDY    66  53  61 SE14G22   29.91F
MACOMB*        CLOUDY    71  53  52 S20G29    29.94F
JACKSONVILLE*  CLOUDY    72  52  50 SE16G26   29.95F
PITTSFIELD*    PTSUNNY   74  54  48 S23       29.93F
$$

ILZ028>032-037-038-041>044-048-051>054-059>061-202000-
CENTRAL ILLINOIS

CITY           SKY/WX    TMP DP  RH WIND       PRES   REMARKS
PONTIAC        MOSUNNY   70  53  55 S23G30    30.03F
BLOOMINGTON    CLOUDY    69  52  54 S26G32    30.01F
DECATUR        SUNNY     71  50  47 S23       30.02F
PEORIA         CLOUDY    69  51  52 S20G26    29.96F
LACON*         MOSUNNY   68  52  56 S20G25    29.96F
LINCOLN*       MOSUNNY   71  53  52 S16G28    29.99F
SPRINGFIELD    MOSUNNY   73  50  44 S24G33    29.98F
TAYLORVILLE    MOSUNNY   72  51  47 S23G31    30.00F
$$

ILZ033-039-045-046-055>057-062-063-202000-
EAST-CENTRAL ILLINOIS

CITY           SKY/WX    TMP DP  RH WIND       PRES   REMARKS
CHAMPAIGN      SUNNY     70  51  51 S24       30.06F
RANTOUL*       MOSUNNY   70  54  56 S16G25    30.07F
MATTOON        MOSUNNY   67  53  61 S14G24    30.06F
PARIS*         CLOUDY    67  53  61 SE13      30.09F
$$

ILZ079-100>102-202000-
SOUTHWEST ILLINOIS

CITY           SKY/WX    TMP DP  RH WIND       PRES   REMARKS
ALTON          CLOUDY    73  52  46 S17G25    29.98F
BELLEVILLE     SUNNY     76  54  46 SE9G22    29.98F
CAHOKIA*       SUNNY     76  52  43 SE14      29.98F
SPARTA*        SUNNY     74  54  49 S13       30.02F
$$

ILZ064>066-069>071-074>076-080>082-084>086-088>090-092>094-202000-
SOUTH-CENTRAL ILLINOIS

CITY           SKY/WX    TMP DP  RH WIND       PRES   REMARKS
CARBONDALE     SUNNY     73  54  51 S14       30.03F
CAIRO*         MOSUNNY   71  55  55 SE10      30.05F
EFFINGHAM*     MOSUNNY   70  54  56 SE12      30.07F
MARION         MOSUNNY   75  54  46 S12       30.05F
MT. VERNON     CLOUDY    73  54  51 SE13      30.05F
CENTRALIA*     CLOUDY    73  54  50 SE12      30.02F
SALEM*         MOSUNNY   74  51  44 SE15G22   30.03F
METROPOLIS*    MOSUNNY   73  54  51 SE12      30.07F
$$

ILZ067-068-072-073-078-083-087-091-202000-
SOUTHEAST ILLINOIS

CITY           SKY/WX    TMP DP  RH WIND       PRES   REMARKS
LAWRENCEVILLE  SUNNY     71  52  50 SE15      30.08F
FLORA*         MOSUNNY   72  54  53 S17       30.06F
FAIRFIELD*     MOSUNNY   70  54  56 SE8       30.06F
HARRISBURG*    SUNNY     71  56  58 S15       30.07F
ROBINSON*      MOSUNNY   69  52  54 SE13      30.09F
CARMI*         MOSUNNY   70  56  62 S10       30.07F
$$

ABBREVIATIONS USED IN REMARKS
   TC - TEMPERATURE IN CELSIUS
  WCI - WIND CHILL INDEX
   HX - HEAT INDEX
  VSB - VISIBILITY
$$




USA.gov is the U.S. government's official web portal to all federal, state and local government web resources and services.